Location: Eckville
(52.3611°N, 114.3680°W)
Time: 11:29:06
(UTC+00:00)

Tiangong - Visible Passes

Search period start: 20 April 2024 00:00
Search period end: 30 April 2024 00:00
Orbit: 371 x 379 km, 41.5° (Epoch: 20 April)

Date Brightness Start Highest point End Pass type
(mag) Time Alt. Az. Time Alt. Az. Time Alt. Az.
20 Apr 0.2 04:09:45 10° S 04:10:09 11° S 04:10:09 11° S visible
22 Apr 0.2 03:40:14 10° SSW 03:41:20 11° S 03:42:26 10° SSE visible
23 Apr 0.2 04:13:48 10° SSW 04:14:30 11° S 04:14:51 10° S visible
